FW1633 Weather Reports


Display with metric or nautical units.
time (UTC)temp
F
wind
direction
speed
MPH
gust
MPH
rain 1hr
in
rain 24hr
in
rain mn
in
humidity
%
barometer
mb
20210306040713 33 349 2.0 9.0 0.00 0.00 0.00 46 1013.5
20210306040224 33 65 2.0 9.0 0.00 0.00 0.00 47 1013.7
20210306040131 33 236 1.0 13.0 0.00 0.00 0.00 47 1013.6
20210306035352 33 105 3.0 13.0 0.00 0.00 0.00 46 1013.5
20210306034806 33 41 2.0 13.0 0.00 0.00 0.00 44 1013.5
20210306034230 33 221 2.0 9.0 0.00 0.00 0.00 45 1013.5
20210306033722 33 344 2.0 8.0 0.00 0.00 0.00 47 1013.7
20210306033223 33 293 2.0 10.0 0.00 0.00 0.00 47 1013.7
20210306032944 34 333 3.0 10.0 0.00 0.00 0.00 44 1013.7
20210306032853 34 255 2.0 14.0 0.00 0.00 0.00 45 1013.5
20210306031743 34 256 4.0 14.0 0.00 0.00 0.00 42 1013.4
20210306031647 33 287 4.0 11.0 0.00 0.00 0.00 43 1013.4
20210306031242 34 66 3.0 9.0 0.00 0.00 0.00 46 1013.5
20210306030724 34 65 3.0 14.0 0.00 0.00 0.00 45 1013.4
20210306030230 34 29 4.0 14.0 0.00 0.00 0.00 42 1013.4
20210306030220 33 318 4.0 14.0 0.00 0.00 0.00 41 1013.5
20210306030038 34 357 2.0 11.0 0.00 0.00 0.00 43 1013.5
20210306025857 34 45 4.0 11.0 0.00 0.00 0.00 43 1013.4
20210306024824 34 146 5.0 13.0 0.00 0.00 0.00 41 1013.4
20210306024540 33 321 2.0 13.0 0.00 0.00 0.00 42 1013.5
20210306024224 34 39 5.0 13.0 0.00 0.00 0.00 42 1013.4
20210306023720 34 323 4.0 11.0 0.00 0.00 0.00 40 1013.5
20210306023214 33 274 2.0 10.0 0.00 0.00 0.00 42 1013.5
20210306022802 34 346 3.0 10.0 0.00 0.00 0.00 40 1013.5
20210306022442 34 340 3.0 10.0 0.00 0.00 0.00 38 1013.4
20210306021726 34 316 2.0 9.0 0.00 0.00 0.00 42 1013.6
20210306021653 33 72 2.0 9.0 0.00 0.00 0.00 41 1013.6
20210306021227 34 31 1.0 11.0 0.00 0.00 0.00 42 1013.5
20210306020726 34 267 4.0 12.0 0.00 0.00 0.00 39 1013.6
20210306020218 34 272 3.0 12.0 0.00 0.00 0.00 44 1013.4
20210306020156 34 269 4.0 12.0 0.00 0.00 0.00 41 1013.4
20210306020058 34 2 3.0 9.0 0.00 0.00 0.00 43 1013.4
20210306015738 34 94 3.0 11.0 0.00 0.00 0.00 39 1013.3
20210306014758 34 317 4.0 11.0 0.00 0.00 0.00 39 1013.3
20210306014654 34 250 1.0 14.0 0.00 0.00 0.00 42 1013.4
20210306014214 34 2 3.0 14.0 0.00 0.00 0.00 38 1013.4
20210306013728 34 92 3.0 11.0 0.00 0.00 0.00 39 1013.2
20210306013223 34 275 4.0 11.0 0.00 0.00 0.00 39 1013.3
20210306013054 34 229 4.0 11.0 0.00 0.00 0.00 38 1013.2
20210306012923 34 302 1.0 8.0 0.00 0.00 0.00 40 1013.2
20210306012643 34 224 2.0 9.0 0.00 0.00 0.00 38 1013.0
20210306011742 34 296 4.0 9.0 0.00 0.00 0.00 38 1012.9
20210306011524 34 249 2.0 9.0 0.00 0.00 0.00 40 1012.9
20210306011226 34 34 4.0 9.0 0.00 0.00 0.00 40 1012.8
20210306010718 34 285 3.0 10.0 0.00 0.00 0.00 40 1012.7
20210306010219 34 82 4.0 10.0 0.00 0.00 0.00 37 1012.6
20210306010158 34 130 3.0 10.0 0.00 0.00 0.00 40 1012.7
20210306010024 34 44 3.0 10.0 0.00 0.00 0.00 40 1012.7
20210306005919 34 284 2.0 10.0 0.00 0.00 0.00 42 1012.6
20210306005637 34 63 2.0 11.0 0.00 0.00 0.00 43 1012.5
20210306004715 35 223 4.0 14.0 0.00 0.00 0.00 37 1012.3
20210306004624 34 300 3.0 14.0 0.00 0.00 0.00 38 1012.5
20210306004228 35 24 8.0 14.0 0.00 0.00 0.00 42 1012.4
20210306003714 34 228 3.0 13.0 0.00 0.00 0.00 39 1012.4
20210306003349 34 316 3.0 13.0 0.00 0.00 0.00 40 1012.3
20210306003312 34 257 4.0 13.0 0.00 0.00 0.00 40 1012.4
20210306003139 34 340 2.0 7.0 0.00 0.00 0.00 42 1012.4
20210306002810 34 67 2.0 9.0 0.00 0.00 0.00 39 1012.3
20210306001800 34 56 2.0 11.0 0.00 0.00 0.00 37 1012.4
20210306001713 34 290 3.0 11.0 0.00 0.00 0.00 39 1012.3
20210306001218 34 271 4.0 11.0 0.00 0.00 0.00 38 1012.3
20210306000729 34 37 1.0 11.0 0.00 0.00 0.00 38 1012.2
20210306000228 34 327 3.0 9.0 0.00 0.00 0.00 38 1012.2
20210306000129 34 124 3.0 11.0 0.00 0.00 0.00 42 1012.2
20210305235946 34 229 3.0 12.0 0.00 0.00 0.00 40 1012.2
20210305235652 35 300 4.0 12.0 0.00 0.00 0.00 38 1012.1
20210305234718 35 315 6.0 10.0 0.00 0.00 0.00 41 1012.1
20210305234543 34 35 4.0 9.0 0.00 0.00 0.00 38 1012.1
20210305234215 34 311 3.0 9.0 0.00 0.00 0.00 39 1012.1
20210305233727 34 37 4.0 11.0 0.00 0.00 0.00 38 1012.1
20210305233222 34 236 4.0 10.0 0.00 0.00 0.00 34 1011.9
20210305233209 34 113 4.0 10.0 0.00 0.00 0.00 34 1012.0
20210305232917 34 359 4.0 11.0 0.00 0.00 0.00 35 1011.9
20210305232810 34 45 3.0 11.0 0.00 0.00 0.00 37 1011.9
20210305231928 35 143 3.0 13.0 0.00 0.00 0.00 39 1011.8
20210305231609 34 270 3.0 13.0 0.00 0.00 0.00 35 1011.8
20210305231221 35 198 5.0 14.0 0.00 0.00 0.00 40 1011.7
20210305230714 35 291 7.0 14.0 0.00 0.00 0.00 38 1011.6
20210305230208 35 281 3.0 17.0 0.00 0.00 0.00 35 1011.6
20210305230035 34 162 5.0 17.0 0.00 0.00 0.00 38 1011.7
20210305225924 35 33 5.0 17.0 0.00 0.00 0.00 37 1011.6
20210305225707 35 307 6.0 10.0 0.00 0.00 0.00 36 1011.4
20210305224725 35 298 4.0 12.0 0.00 0.00 0.00 35 1011.4
20210305224647 34 71 2.0 16.0 0.00 0.00 0.00 35 1011.5
20210305224211 35 297 5.0 16.0 0.00 0.00 0.00 35 1011.3
20210305223725 35 352 5.0 16.0 0.00 0.00 0.00 33 1011.3
20210305223221 35 339 4.0 15.0 0.00 0.00 0.00 34 1011.2
20210305223101 35 52 4.0 15.0 0.00 0.00 0.00 35 1011.2
20210305222856 35 118 3.0 15.0 0.00 0.00 0.00 39 1011.1
20210305222611 35 290 4.0 19.0 0.00 0.00 0.00 36 1011.1
20210305221728 35 275 10.0 19.0 0.00 0.00 0.00 33 1011.2
20210305221539 35 11 8.0 18.0 0.00 0.00 0.00 36 1011.2
20210305221218 35 46 9.0 18.0 0.00 0.00 0.00 36 1011.1
20210305220728 36 354 7.0 17.0 0.00 0.00 0.00 31 1011.1
20210305220409 35 343 6.0 14.0 0.00 0.00 0.00 31 1011.1
20210305220230 36 65 7.0 15.0 0.00 0.00 0.00 31 1011.1
20210305220033 35 145 6.0 14.0 0.00 0.00 0.00 30 1011.1
20210305215917 36 240 4.0 12.0 0.00 0.00 0.00 34 1011.0
20210305215340 36 54 5.0 15.0 0.00 0.00 0.00 32 1011.0
20210305214809 36 315 4.0 15.0 0.00 0.00 0.00 34 1011.0
20210305214625 36 323 4.0 15.0 0.00 0.00 0.00 32 1011.0
20210305214219 37 294 6.0 15.0 0.00 0.00 0.00 30 1011.0
20210305213712 37 283 6.0 15.0 0.00 0.00 0.00 33 1011.0
20210305213228 37 11 6.0 15.0 0.00 0.00 0.00 33 1010.7
20210305213126 36 22 6.0 15.0 0.00 0.00 0.00 31 1010.8
20210305213011 37 264 5.0 16.0 0.00 0.00 0.00 35 1010.7
20210305212754 37 336 5.0 16.0 0.00 0.00 0.00 32 1010.7
20210305211843 37 300 5.0 14.0 0.00 0.00 0.00 28 1010.6
20210305211539 37 297 4.0 14.0 0.00 0.00 0.00 30 1010.5
20210305211229 37 215 6.0 14.0 0.00 0.00 0.00 30 1010.5
20210305210723 38 293 5.0 14.0 0.00 0.00 0.00 29 1010.6
20210305210228 37 316 3.0 16.0 0.00 0.00 0.00 28 1010.5
20210305210216 38 285 5.0 16.0 0.00 0.00 0.00 32 1010.5
20210305205832 38 215 6.0 16.0 0.00 0.00 0.00 27 1010.4
20210305205459 38 205 5.0 18.0 0.00 0.00 0.00 26 1010.4
20210305204732 38 292 5.0 18.0 0.00 0.00 0.00 26 1010.3
20210305204603 37 226 6.0 18.0 0.00 0.00 0.00 27 1010.5
20210305204229 37 289 5.0 16.0 0.00 0.00 0.00 32 1010.5
20210305203722 37 346 10.0 19.0 0.00 0.00 0.00 33 1010.4
20210305203217 37 340 5.0 14.0 0.00 0.00 0.00 34 1010.5
20210305203038 37 316 3.0 14.0 0.00 0.00 0.00 30 1010.5
20210305202905 37 151 5.0 16.0 0.00 0.00 0.00 32 1010.5
20210305202545 37 329 7.0 16.0 0.00 0.00 0.00 29 1010.5
20210305201730 37 257 5.0 15.0 0.00 0.00 0.00 30 1010.5
20210305201637 37 295 6.0 15.0 0.00 0.00 0.00 33 1010.5
20210305201215 37 68 6.0 12.0 0.00 0.00 0.00 31 1010.6
20210305200736 37 276 5.0 15.0 0.00 0.00 0.00 33 1010.5
20210305200453 37 260 6.0 16.0 0.00 0.00 0.00 28 1010.6
20210305200405 37 318 7.0 16.0 0.00 0.00 0.00 28 1010.5
20210305200209 37 108 5.0 14.0 0.00 0.00 0.00 32 1010.6
20210305195848 37 96 8.0 16.0 0.00 0.00 0.00 28 1010.5
20210305194731 37 309 5.0 16.0 0.00 0.00 0.00 30 1010.5
20210305194542 37 273 5.0 16.0 0.00 0.00 0.00 32 1010.6
20210305194212 37 91 5.0 13.0 0.00 0.00 0.00 30 1010.5
20210305193724 37 330 6.0 13.0 0.00 0.00 0.00 32 1010.6
20210305193236 36 44 5.0 17.0 0.00 0.00 0.00 29 1010.5
20210305193230 37 357 6.0 17.0 0.00 0.00 0.00 30 1010.5
20210305193046 37 193 7.0 17.0 0.00 0.00 0.00 30 1010.4
20210305192643 37 321 6.0 19.0 0.00 0.00 0.00 31 1010.5
20210305191720 36 346 10.0 19.0 0.00 0.00 0.00 35 1010.6
20210305191611 36 325 8.0 19.0 0.00 0.00 0.00 38 1010.6
20210305191214 37 1 6.0 19.0 0.00 0.00 0.00 36 1010.6
20210305190724 37 327 4.0 13.0 0.00 0.00 0.00 36 1010.6
20210305190220 36 295 6.0 14.0 0.00 0.00 0.00 36 1010.6
20210305190101 36 71 4.0 14.0 0.00 0.00 0.00 36 1010.7
20210305185859 36 255 6.0 15.0 0.00 0.00 0.00 34 1010.6
20210305185644 37 19 5.0 15.0 0.00 0.00 0.00 35 1010.7
20210305184740 37 172 5.0 14.0 0.00 0.00 0.00 33 1010.7
20210305184238 36 157 3.0 11.0 0.00 0.00 0.00 33 1010.7
20210305183729 36 20 4.0 19.0 0.00 0.00 0.00 36 1010.8
20210305183222 35 321 13.0 19.0 0.00 0.00 0.00 36 1010.9
20210305183139 35 340 11.0 19.0 0.00 0.00 0.00 34 1010.9
20210305182819 36 17 7.0 16.0 0.00 0.00 0.00 35 1011.0
20210305182437 36 313 6.0 13.0 0.00 0.00 0.00 36 1011.0
20210305181722 36 57 4.0 13.0 0.00 0.00 0.00 30 1011.0
20210305181540 35 14 5.0 15.0 0.00 0.00 0.00 32 1011.0
20210305181224 36 292 6.0 15.0 0.00 0.00 0.00 34 1011.1
20210305180715 35 307 7.0 15.0 0.00 0.00 0.00 32 1011.1
20210305180228 35 48 6.0 14.0 0.00 0.00 0.00 39 1011.3
20210305180054 35 27 4.0 17.0 0.00 0.00 0.00 37 1011.3
20210305180023 35 203 5.0 21.0 0.00 0.00 0.00 42 1011.4
20210305175840 34 39 12.0 21.0 0.00 0.00 0.00 36 1011.3
20210305174858 35 328 7.0 19.0 0.00 0.00 0.00 41 1011.4
20210305174639 35 205 5.0 15.0 0.00 0.00 0.00 37 1011.4
20210305174221 35 83 6.0 15.0 0.00 0.00 0.00 36 1011.6
20210305173714 35 264 5.0 16.0 0.00 0.00 0.00 36 1011.6
20210305173234 35 293 5.0 15.0 0.00 0.00 0.00 35 1011.4
20210305173104 34 54 4.0 18.0 0.00 0.00 0.00 37 1011.4
20210305172915 34 278 7.0 18.0 0.00 0.00 0.00 38 1011.5
20210305172553 34 14 7.0 18.0 0.00 0.00 0.00 36 1011.7
20210305171715 35 53 5.0 12.0 0.00 0.00 0.00 38 1011.7
20210305171610 34 40 4.0 12.0 0.00 0.00 0.00 39 1011.7
20210305171224 34 65 4.0 12.0 0.00 0.00 0.00 36 1011.7
20210305170720 34 8 4.0 15.0 0.00 0.00 0.00 40 1011.7
20210305170227 33 282 5.0 15.0 0.00 0.00 0.00 42 1011.7
20210305170212 33 78 6.0 18.0 0.00 0.00 0.00 39 1011.8
20210305170040 33 34 6.0 18.0 0.00 0.00 0.00 38 1012.0
20210305165818 33 328 10.0 18.0 0.00 0.00 0.00 41 1011.9
20210305164809 33 227 5.0 16.0 0.00 0.00 0.00 41 1012.0
20210305164552 32 359 7.0 16.0 0.00 0.00 0.00 39 1012.0
20210305164344 33 44 5.0 16.0 0.00 0.00 0.00 41 1012.1
20210305164136 33 339 6.0 12.0 0.00 0.00 0.00 37 1012.2
20210305163941 33 321 5.0 12.0 0.00 0.00 0.00 40 1012.2
20210305163822 32 296 4.0 12.0 0.00 0.00 0.00 41 1012.3
20210305163436 33 49 5.0 13.0 0.00 0.00 0.00 39 1012.3
20210305163058 32 38 6.0 14.0 0.00 0.00 0.00 42 1012.2
20210305161746 32 19 5.0 14.0 0.00 0.00 0.00 42 1012.3
20210305161226 31 69 3.0 17.0 0.00 0.00 0.00 44 1012.3
20210305160718 31 338 6.0 17.0 0.00 0.00 0.00 43 1012.4
20210305160226 31 326 11.0 15.0 0.00 0.00 0.00 46 1012.7
20210305160137 30 327 7.0 17.0 0.00 0.00 0.00 46 1012.7
20210305155824 31 307 7.0 17.0 0.00 0.00 0.00 43 1012.6
20210305155444 30 329 12.0 17.0 0.00 0.00 0.00 41 1012.5
20210305154750 30 23 8.0 19.0 0.00 0.00 0.00 46 1012.6
20210305154542 30 331 9.0 19.0 0.00 0.00 0.00 46 1012.6
20210305154216 30 331 10.0 16.0 0.00 0.00 0.00 41 1012.7
20210305153730 30 317 4.0 10.0 0.00 0.00 0.00 44 1012.6
20210305153226 30 263 5.0 11.0 0.00 0.00 0.00 41 1012.6
20210305153214 29 248 4.0 18.0 0.00 0.00 0.00 41 1012.8
20210305153107 30 309 7.0 18.0 0.00 0.00 0.00 45 1012.8
20210305152853 29 20 9.0 18.0 0.00 0.00 0.00 45 1012.9
20210305151726 29 83 5.0 20.0 0.00 0.00 0.00 48 1012.8
20210305151528 29 243 4.0 20.0 0.00 0.00 0.00 45 1012.8
20210305151218 29 326 5.0 20.0 0.00 0.00 0.00 50 1012.8
20210305150733 29 34 6.0 18.0 0.00 0.00 0.00 48 1012.9
20210305150220 29 274 7.0 17.0 0.00 0.00 0.00 50 1012.9
20210305150213 28 259 5.0 22.0 0.00 0.00 0.00 50 1013.0
20210305145933 28 220 10.0 22.0 0.00 0.00 0.00 44 1012.9
20210305145811 28 312 9.0 17.0 0.00 0.00 0.00 46 1012.9
20210305144728 28 33 6.0 19.0 0.00 0.00 0.00 48 1013.1
20210305144641 28 250 6.0 19.0 0.00 0.00 0.00 50 1013.1
20210305144220 28 4 6.0 19.0 0.00 0.00 0.00 47 1013.0
20210305143729 28 249 5.0 14.0 0.00 0.00 0.00 52 1013.2
20210305143227 28 63 6.0 14.0 0.00 0.00 0.00 49 1013.1
20210305143036 28 288 5.0 12.0 0.00 0.00 0.00 52 1013.1
20210305142831 28 290 5.0 12.0 0.00 0.00 0.00 50 1013.0
20210305142529 28 340 6.0 13.0 0.00 0.00 0.00 51 1013.1
20210305141725 27 349 7.0 25.0 0.00 0.00 0.00 51 1013.2
20210305141641 27 30 6.0 25.0 0.00 0.00 0.00 54 1013.2
20210305141212 26 160 12.0 25.0 0.00 0.00 0.00 51 1013.2
20210305140725 27 45 9.0 17.0 0.00 0.00 0.00 49 1013.2
20210305140413 27 34 10.0 17.0 0.00 0.00 0.00 49 1013.2
20210305140340 26 348 4.0 16.0 0.00 0.00 0.00 52 1013.1
20210305140138 27 330 7.0 20.0 0.00 0.00 0.00 47 1013.0
20210305135918 27 354 7.0 20.0 0.00 0.00 0.00 52 1013.0
20210305134859 27 245 7.0 16.0 0.00 0.00 0.00 54 1012.9
20210305134550 26 83 7.0 16.0 0.00 0.00 0.00 52 1013.0
20210305134222 27 316 8.0 14.0 0.00 0.00 0.00 52 1013.0
20210305133713 27 302 7.0 15.0 0.00 0.00 0.00 53 1013.0
20210305133228 27 351 5.0 15.0 0.00 0.00 0.00 54 1012.9
20210305133221 26 303 5.0 16.0 0.00 0.00 0.00 52 1013.0
20210305132914 27 342 5.0 16.0 0.00 0.00 0.00 53 1012.9
20210305132749 26 20 5.0 16.0 0.00 0.00 0.00 53 1013.0
20210305131728 26 58 7.0 19.0 0.00 0.00 0.00 52 1013.2
20210305131604 26 315 6.0 19.0 0.00 0.00 0.00 57 1013.1
20210305131225 26 314 7.0 19.0 0.00 0.00 0.00 53 1013.1
20210305130719 26 38 7.0 17.0 0.00 0.00 0.00 54 1013.1
20210305130426 26 192 4.0 12.0 0.00 0.00 0.00 54 1013.3
20210305130242 25 334 4.0 12.0 0.00 0.00 0.00 55 1013.3
20210305130057 26 25 7.0 13.0 0.00 0.00 0.00 55 1013.3
20210305125907 26 207 5.0 14.0 0.00 0.00 0.00 56 1013.3
20210305124737 25 63 6.0 15.0 0.00 0.00 0.00 55 1013.4
20210305124634 25 8 4.0 15.0 0.00 0.00 0.00 54 1013.3
20210305124218 25 113 4.0 15.0 0.00 0.00 0.00 57 1013.3
20210305123721 25 349 6.0 18.0 0.00 0.00 0.00 57 1013.3
20210305123448 25 129 5.0 18.0 0.00 0.00 0.00 57 1013.3
20210305123430 25 4 7.0 18.0 0.00 0.00 0.00 59 1013.2
20210305123236 25 89 6.0 14.0 0.00 0.00 0.00 57 1013.1
20210305122952 25 350 6.0 16.0 0.00 0.00 0.00 57 1013.1
20210305121726 25 340 8.0 19.0 0.00 0.00 0.00 57 1013.2
20210305121533 24 24 6.0 19.0 0.00 0.00 0.00 58 1013.2
20210305121222 25 269 9.0 19.0 0.00 0.00 0.00 57 1013.2
20210305120719 25 55 6.0 19.0 0.00 0.00 0.00 60 1013.2
20210305120232 25 319 8.0 16.0 0.00 0.00 0.00 60 1013.3
20210305120227 24 335 8.0 16.0 0.00 0.00 0.00 59 1013.3
20210305115816 24 236 11.0 20.0 0.00 0.00 0.00 59 1013.2
20210305114839 24 347 5.0 11.0 0.00 0.00 0.00 62 1013.1
20210305114618 23 39 5.0 15.0 0.00 0.00 0.00 61 1013.1
20210305114224 24 123 5.0 16.0 0.00 0.00 0.00 60 1013.2
20210305113733 24 323 6.0 20.0 0.00 0.00 0.00 61 1013.1
20210305113226 24 309 7.0 20.0 0.00 0.00 0.00 59 1012.9
20210305113211 23 296 7.0 20.0 0.00 0.00 0.00 59 1013.0
20210305112909 24 277 4.0 16.0 0.00 0.00 0.00 57 1012.7
20210305112622 24 262 4.0 16.0 0.00 0.00 0.00 61 1012.9
20210305111745 24 354 4.0 16.0 0.00 0.00 0.00 59 1013.0
20210305111627 24 297 7.0 16.0 0.00 0.00 0.00 56 1013.0
20210305111224 24 345 8.0 16.0 0.00 0.00 0.00 57 1012.9
20210305110719 24 333 4.0 17.0 0.00 0.00 0.00 58 1012.8
20210305110213 24 37 6.0 17.0 0.00 0.00 0.00 57 1012.8
20210305110052 24 330 8.0 17.0 0.00 0.00 0.00 58 1012.9
20210305110008 24 323 8.0 17.0 0.00 0.00 0.00 55 1012.9
20210305105743 24 40 8.0 17.0 0.00 0.00 0.00 56 1013.0
20210305104749 24 352 7.0 15.0 0.00 0.00 0.00 57 1012.9
20210305104615 24 314 7.0 15.0 0.00 0.00 0.00 57 1012.9
20210305104224 24 333 5.0 14.0 0.00 0.00 0.00 54 1012.5
20210305103727 24 110 5.0 16.0 0.00 0.00 0.00 55 1012.6
20210305103227 25 172 6.0 16.0 0.00 0.00 0.00 54 1012.5
20210305103124 24 71 7.0 16.0 0.00 0.00 0.00 58 1012.5
20210305102812 25 257 7.0 14.0 0.00 0.00 0.00 58 1012.5
20210305102438 25 266 6.0 12.0 0.00 0.00 0.00 59 1012.4
20210305101744 25 354 5.0 17.0 0.00 0.00 0.00 56 1012.3
20210305101541 24 25 5.0 17.0 0.00 0.00 0.00 55 1012.3
20210305101216 25 82 5.0 17.0 0.00 0.00 0.00 57 1012.3
20210305100722 25 316 6.0 17.0 0.00 0.00 0.00 56 1012.3
20210305100318 25 321 6.0 19.0 0.00 0.00 0.00 59 1012.2
20210305100238 25 347 8.0 19.0 0.00 0.00 0.00 57 1012.1
20210305095945 25 4 7.0 19.0 0.00 0.00 0.00 58 1012.1
20210305095644 25 326 8.0 18.0 0.00 0.00 0.00 55 1012.0
20210305094725 25 345 7.0 17.0 0.00 0.00 0.00 58 1012.0
20210305094631 25 357 7.0 17.0 0.00 0.00 0.00 57 1012.1
20210305094219 25 338 6.0 16.0 0.00 0.00 0.00 57 1012.0
20210305093728 25 343 4.0 18.0 0.00 0.00 0.00 58 1012.1
20210305093235 25 47 3.0 13.0 0.00 0.00 0.00 59 1012.0
20210305093230 25 297 5.0 13.0 0.00 0.00 0.00 58 1012.0
20210305092833 25 340 5.0 14.0 0.00 0.00 0.00 58 1011.8
20210305092651 26 147 4.0 14.0 0.00 0.00 0.00 59 1011.8
20210305091726 26 238 6.0 14.0 0.00 0.00 0.00 60 1011.7
20210305091659 25 342 6.0 14.0 0.00 0.00 0.00 60 1011.7
20210305091229 26 205 7.0 15.0 0.00 0.00 0.00 60 1011.5
20210305090726 26 262 5.0 15.0 0.00 0.00 0.00 61 1011.5
20210305090220 26 357 6.0 14.0 0.00 0.00 0.00 61 1011.6
20210305090100 25 13 5.0 14.0 0.00 0.00 0.00 60 1011.7
20210305085813 26 352 6.0 12.0 0.00 0.00 0.00 61 1011.6
20210305085446 26 325 5.0 17.0 0.00 0.00 0.00 62 1011.7
20210305084910 26 336 6.0 18.0 0.00 0.00 0.00 62 1011.6
20210305084629 25 105 4.0 18.0 0.00 0.00 0.00 61 1011.6
20210305084523 25 330 7.0 18.0 0.00 0.00 0.00 61 1011.7
20210305084215 26 306 6.0 16.0 0.00 0.00 0.00 60 1011.6
20210305083728 26 273 5.0 16.0 0.00 0.00 0.00 61 1011.6
20210305083221 26 50 8.0 17.0 0.00 0.00 0.00 60 1011.4
20210305083141 26 64 7.0 17.0 0.00 0.00 0.00 62 1011.4
20210305083050 26 53 4.0 13.0 0.00 0.00 0.00 60 1011.4
20210305082725 26 218 5.0 13.0 0.00 0.00 0.00 61 1011.4
20210305081827 26 340 5.0 14.0 0.00 0.00 0.00 61 1011.3
20210305081545 25 359 7.0 15.0 0.00 0.00 0.00 60 1011.5
20210305081220 26 65 6.0 15.0 0.00 0.00 0.00 61 1011.4
20210305080714 26 335 6.0 15.0 0.00 0.00 0.00 61 1011.5
20210305080231 26 19 4.0 12.0 0.00 0.00 0.00 62 1011.4
20210305080056 25 281 5.0 12.0 0.00 0.00 0.00 57 1011.4
20210305075948 26 63 4.0 16.0 0.00 0.00 0.00 61 1011.6
20210305075844 26 351 8.0 16.0 0.00 0.00 0.00 60 1011.6
20210305074713 26 286 3.0 15.0 0.00 0.00 0.00 62 1011.6
20210305074708 26 238 3.0 15.0 0.00 0.00 0.00 62 1011.6
20210305074230 26 328 3.0 15.0 0.00 0.00 0.00 61 1011.6
20210305073732 26 52 4.0 13.0 0.00 0.00 0.00 60 1011.6
20210305073210 26 356 5.0 17.0 0.00 0.00 0.00 62 1011.6
20210305073032 26 293 3.0 17.0 0.00 0.00 0.00 61 1011.7
20210305072849 26 328 9.0 17.0 0.00 0.00 0.00 63 1011.6
20210305072605 26 24 6.0 14.0 0.00 0.00 0.00 61 1011.6
20210305071753 26 72 3.0 14.0 0.00 0.00 0.00 62 1011.6
20210305071624 26 109 3.0 14.0 0.00 0.00 0.00 62 1011.7
20210305071510 26 340 7.0 14.0 0.00 0.00 0.00 62 1011.7
20210305071211 26 2 3.0 14.0 0.00 0.00 0.00 64 1011.7
20210305070721 26 298 4.0 14.0 0.00 0.00 0.00 62 1011.8
20210305070220 27 349 4.0 14.0 0.00 0.00 0.00 63 1011.8
20210305070146 26 30 7.0 14.0 0.00 0.00 0.00 63 1011.8
20210305065911 27 321 6.0 13.0 0.00 0.00 0.00 62 1011.8
20210305065544 26 271 5.0 11.0 0.00 0.00 0.00 61 1011.8
20210305064713 27 326 5.0 17.0 0.00 0.00 0.00 63 1011.9
20210305064551 26 339 6.0 17.0 0.00 0.00 0.00 62 1012.0
20210305064237 26 274 9.0 17.0 0.00 0.00 0.00 60 1011.9
20210305063721 26 353 10.0 15.0 0.00 0.00 0.00 60 1012.1
20210305063219 27 357 8.0 14.0 0.00 0.00 0.00 61 1012.1
20210305063203 26 342 6.0 14.0 0.00 0.00 0.00 62 1012.1
20210305063039 26 306 6.0 17.0 0.00 0.00 0.00 62 1012.1
20210305062838 26 326 11.0 17.0 0.00 0.00 0.00 59 1012.1
20210305061728 26 330 5.0 15.0 0.00 0.00 0.00 61 1012.1
20210305061720 27 300 7.0 15.0 0.00 0.00 0.00 60 1012.1
20210305061222 27 336 11.0 16.0 0.00 0.00 0.00 58 1012.1
20210305060730 27 1 8.0 16.0 0.00 0.00 0.00 59 1012.1
20210305060222 27 293 10.0 16.0 0.00 0.00 0.00 60 1012.0
20210305060035 26 336 6.0 19.0 0.00 0.00 0.00 61 1012.1
20210305055915 27 352 8.0 19.0 0.00 0.00 0.00 61 1012.1
20210305055608 27 315 14.0 19.0 0.00 0.00 0.00 58 1012.2
20210305054718 27 309 9.0 15.0 0.00 0.00 0.00 60 1012.1
20210305054616 26 346 7.0 13.0 0.00 0.00 0.00 59 1012.1
20210305054220 27 326 4.0 15.0 0.00 0.00 0.00 61 1011.9
20210305053713 27 332 10.0 16.0 0.00 0.00 0.00 59 1011.8
20210305053236 27 350 8.0 17.0 0.00 0.00 0.00 61 1011.8
20210305053053 26 288 9.0 17.0 0.00 0.00 0.00 58 1011.8
20210305052838 27 329 8.0 16.0 0.00 0.00 0.00 61 1011.9
20210305052525 27 70 7.0 16.0 0.00 0.00 0.00 58 1011.9
20210305051732 27 4 8.0 14.0 0.00 0.00 0.00 59 1011.9
20210305051649 27 4 7.0 14.0 0.00 0.00 0.00 60 1012.0
20210305051524 27 342 6.0 14.0 0.00 0.00 0.00 59 1011.9
20210305051220 27 41 5.0 15.0 0.00 0.00 0.00 58 1011.8
20210305050715 27 325 7.0 22.0 0.00 0.00 0.00 59 1011.9
20210305050219 27 336 10.0 22.0 0.00 0.00 0.00 57 1012.0
20210305050020 27 279 9.0 19.0 0.00 0.00 0.00 57 1012.0
20210305045849 27 294 10.0 21.0 0.00 0.00 0.00 57 1011.9
20210305045628 27 278 13.0 21.0 0.00 0.00 0.00 57 1011.7
20210305044733 28 25 8.0 21.0 0.00 0.00 0.00 60 1011.7
20210305044648 27 332 10.0 26.0 0.00 0.00 0.00 57 1011.8
20210305044212 28 32 10.0 26.0 0.00 0.00 0.00 60 1011.6
20210305043731 28 342 14.0 26.0 0.00 0.00 0.00 57 1011.5
20210305043228 28 331 10.0 18.0 0.00 0.00 0.00 58 1011.5
20210305043118 27 336 9.0 23.0 0.00 0.00 0.00 57 1011.5
20210305042956 28 357 9.0 23.0 0.00 0.00 0.00 57 1011.5
20210305042634 28 309 9.0 23.0 0.00 0.00 0.00 57 1011.5
20210305041745 28 350 9.0 26.0 0.00 0.00 0.00 57 1011.5
20210305041651 28 313 11.0 26.0 0.00 0.00 0.00 56 1011.6
20210305041230 28 348 9.0 26.0 0.00 0.00 0.00 58 1011.4